Location: Unspecified
(43.4680°N, 87.1740°E)
Time: 15:04:37
(UTC+00:00)

Okean 2 - Pass Details

Date: 02 August 2021
Orbit: 558 x 577 km, 82.5° (Epoch: 19 September)

Event Time Altitude Azimuth Distance (km) Brightness Sun altitude
Rises 18:45:57 0° 5° (N) 2,802 8.2 -28.6°
Reaches altitude 10° 18:48:34 10° 21° (NNE) 1,897 7.0 -28.6°
Enters shadow 18:51:42 22° 69° (ENE) 1,289 5.4 -28.5°
